Location: Vesunti
(61.5000°N, 22.8333°E)
Time: 08:56:43
(UTC+00:00)

SL-16 R/B - Pass Details

Date: 17 February 2020
Orbit: 843 x 847 km, 71.0° (Epoch: 03 April)

Event Time Altitude Azimuth Distance (km) Brightness Sun altitude
Exits shadow 04:42:05 - 235° (SW) 2,907 4.5 -10.8°
Reaches altitude 10° 04:43:14 10° 237° (WSW) 2,471 4.2 -10.6°
Maximum altitude 04:48:53 66° 319° (NW) 924 2.2 -9.9°
Drops below altitude 10° 04:54:34 10° 43° (NE) 2,479 5.1 -9.3°
Sets 04:57:03 0° 46° (NE) 3,416 5.9 -9.0°
